AKST,Max TemperatureF,Mean TemperatureF,Min TemperatureF,Max Dew PointF,MeanDew PointF,Min DewpointF,Max Humidity, Mean Humidity, Min Humidity, Max Sea Level PressureIn, Mean Sea Level PressureIn, Min Sea Level PressureIn, Max VisibilityMiles, Mean VisibilityMiles, Min VisibilityMiles, Max Wind SpeedMPH, Mean Wind SpeedMPH, Max Gust SpeedMPH,PrecipitationIn, CloudCover, Events, WindDirDegrees
2013-12-1,24,20,15,23,21,14,93,93,93,30.38,30.32,30.26,10,4,2,36,27,41,0.00,8,Snow,240
2013-12-2,23,16,10,21,14,10,100,95,93,30.65,30.61,30.53,10,7,0,21,12,,0.00,8,Fog-Snow,79
2013-12-3,26,16,5,23,13,1,93,88,80,30.43,30.35,30.30,10,10,10,18,10,28,0.00,6,Snow,212
2013-12-4,26,20,14,25,17,10,93,91,86,30.54,30.49,30.38,10,9,2,25,17,33,0.00,6,Snow,258
2013-12-5,14,8,5,12,7,1,93,90,85,30.48,30.35,30.04,10,3,0,16,10,,0.00,6,Fog-Snow,88
2013-12-6,19,18,17,19,17,16,100,96,93,30.28,30.26,30.22,10,4,1,25,19,32,0.00,8,Snow,92
2013-12-7,35,25,15,36,22,12,100,94,79,30.10,29.97,29.83,10,5,1,30,22,34,0.00,7,Rain-Snow,136
2013-12-8,30,22,15,27,22,14,100,91,86,30.26,30.20,30.06,10,8,2,36,26,44,0.00,8,Snow,266
2013-12-9,8,6,3,1,1,0,92,83,72,30.34,30.30,30.27,7,3,2,33,26,40,0.00,5,Snow,92
2013-12-10,-4,-10,-16,-11,-18,-22,84,77,65,30.90,30.83,30.68,10,10,3,18,13,,0.00,1,Snow,299
2013-12-11,-9,-14,-18,-18,-21,-26,84,75,59,30.89,30.86,30.84,10,8,3,13,9,,0.00,6,Snow,269
2013-12-12,-13,-14,-18,-18,-22,-26,84,74,58,30.81,30.70,30.55,10,8,4,6,4,,0.00,6,,301
2013-12-13,-14,-17,-20,-20,-24,-31,84,72,53,30.33,30.17,30.00,10,8,3,10,6,,0.00,5,Snow,300
2013-12-14,-25,-30,-34,-35,-39,-42,75,70,56,29.86,29.84,29.82,10,10,10,8,6,,0.00,0,,136
2013-12-15,-18,-22,-27,-24,-33,-45,76,67,38,30.08,30.02,29.94,10,5,2,21,14,,0.00,3,,236
2013-12-16,0,-8,-16,-4,-10,-27,92,80,58,30.12,30.06,30.03,7,4,2,25,17,28,0.00,7,Snow,239
2013-12-17,-2,-4,-7,-8,-11,-15,85,79,60,30.05,30.04,30.03,10,5,2,20,15,,0.00,6,Snow,253
2013-12-18,-7,-10,-14,-15,-18,-22,84,80,64,30.12,30.08,30.04,10,5,0,13,10,,0.00,7,Fog-Snow,270
2013-12-19,-11,-16,-22,-17,-21,-31,84,74,53,30.17,30.16,30.14,10,3,0,17,4,,0.00,6,Fog-Snow,316
2013-12-20,-16,-22,-27,-22,-27,-31,83,76,69,30.12,30.08,30.05,10,5,0,8,6,,0.00,7,Fog,258
2013-12-21,-2,-8,-11,-6,-12,-17,92,83,77,29.88,29.74,29.66,10,7,2,18,13,,0.00,5,Snow,76
2013-12-22,0,-4,-11,-4,-8,-15,85,85,84,29.78,29.75,29.71,10,10,10,12,9,,0.00,7,,62
2013-12-23,-9,-12,-14,-15,-16,-18,84,81,77,29.99,29.92,29.84,10,7,1,25,12,34,0.00,6,Snow,249
2013-12-24,-2,-8,-14,-6,-9,-18,92,85,77,30.16,30.06,29.99,7,2,0,30,24,33,0.00,7,Fog-Snow,255
2013-12-25,-4,-16,-27,-24,-30,-36,83,68,35,30.30,30.28,30.24,3,2,1,24,20,29,0.00,3,Snow,247
2013-12-26,-23,-25,-27,-27,-32,-38,83,71,47,30.45,30.39,30.34,10,8,3,20,16,,0.00,3,,247
2013-12-27,-22,-26,-31,-27,-34,-42,83,70,51,30.60,30.59,30.57,10,8,1,16,8,,0.00,1,,58
2013-12-28,-16,-19,-20,-22,-26,-33,91,72,52,30.47,30.34,30.23,2,1,0,25,18,,0.00,2,Snow,74
2013-12-29,-14,-17,-20,-20,-23,-26,84,75,58,30.17,30.15,30.14,10,10,7,16,13,,0.00,1,,109
2013-12-30,-9,-12,-14,-15,-18,-24,84,77,59,30.08,29.99,29.93,10,9,2,16,13,,0.00,0,Snow,114
2013-12-31,3,0,-2,0,-4,-11,92,82,66,29.98,29.96,29.93,10,7,2,29,23,34,0.00,0,Snow,102